Location: Newark
(23.1300°N, 73.6109°E)
Time: 09:17:48
(UTC+00:00)

Hubble Space Telescope - Visible Passes

Search period start: 15 May 2021 00:00
Search period end: 25 May 2021 00:00
Orbit: 535 x 539 km, 28.5° (Epoch: 14 May)

Date Brightness Start Highest point End Pass type
(mag) Time Alt. Az. Time Alt. Az. Time Alt. Az.
15 May 2.9 23:27:00 10° SSW 23:29:40 17° SSE 23:32:20 10° ESE visible
16 May 2.5 23:16:30 15° SSW 23:18:41 22° SSE 23:21:54 10° E visible
17 May 2.1 23:06:11 22° S 23:07:42 29° SSE 23:11:17 10° E visible
18 May 1.6 22:55:49 32° S 22:56:44 37° SSE 23:00:33 10° E visible
19 May 1.1 22:45:24 47° S 22:45:47 48° SSE 22:49:45 10° E visible
20 May 0.8 22:34:57 63° SSE 22:34:57 63° SSE 22:38:55 10° ENE visible
21 May 1.0 22:24:29 64° E 22:24:29 64° E 22:28:02 10° ENE visible
22 May 1.5 22:13:59 50° ENE 22:13:59 50° ENE 22:17:07 10° ENE visible
22 May 1.8 23:50:28 10° WNW 23:54:22 40° N 23:58:15 10° ENE visible
23 May 2.1 22:03:29 39° NE 22:03:29 39° NE 22:06:12 10° ENE visible
23 May 1.9 23:39:38 10° WNW 23:43:31 38° N 23:47:23 10° ENE visible
24 May 2.6 21:52:59 30° NE 21:52:59 30° NE 21:55:15 10° ENE visible
24 May 2.0 23:28:48 10° WNW 23:32:40 38° N 23:36:31 10° ENE visible
